格洛纳斯M-746 COSMOS 2478 [GLONASS-M]

导读

COSMOS 2478是独联体(CIS)发射的GLONASS全球导航卫星系统成员,于2011年11月28日08:00发射入轨。作为俄GLONASS-M系列导航卫星,它属于第二代改进型卫星,延续三轴稳定设计,配备精密铯钟作为频率基准,设计在轨寿命8年,主要承担全球导航定位服务,补充完善格洛纳斯星座组网,为军民用户提供开放免加密的定位、测速和授时服务,提升系统覆盖稳定性与定位精度。

基本信息
目录编号:
37938
目录名称:
COSMOS 2478 (GLONASS)
国际标识:
2011-071A
轨道中心:
EARTH
卫星名称:
格洛纳斯M-746
卫星全名:
格洛纳斯M-746 COSMOS 2478 [GLONASS-M]
卫星状态:
在轨 (已飞行5405 天)
发射日期:
2011-11-28 UTC
国别 :
俄罗斯(独联体) (CIS)
星等 :
--
该卫星已列入 空间交会检测服务 Space Conjunction Data Service (SCDS) ,当前飞行风险评估等级: 无高风险
轨道信息
数据来源 国际轨道数据 AOE轨道数据
星历时间 2026-09-12T03:15:53+0800
4天前
查看轨道信息
2026-09-12T05:00:00+0800
4天前
查看轨道信息
半长轴 25514.922km 25515.433km
偏心率 0.0018491 0.0018662
轨道倾角 65.408° 65.408°
近地点辐角 219.899° 220.410°
升交点赤经 311.937° 311.934°
平近点角 138.078° 193.005°
近地点 19089.605km 19089.679km
远地点 19183.965km 19184.913km
周期 676.007分钟 676.027分钟
每日圈数 2.130156 2.130092
详细信息
平衡模式:
三轴稳定
覆盖范围:
全球
运营商:
列舍特涅夫卫星信息系统
运营商所在国:
俄罗斯
制造商(研发单位):
列舍特涅夫卫星信息系统
制造商所在国:
俄罗斯
使用方式:
暂无
卫星简介
格洛纳斯(GLONASS )是苏联/俄罗斯研制卫星导航系统。标准配置为24颗卫星,其中18颗卫星就能保证该系统为俄罗斯境内用户提供全部服务。该卫星已退役。
2D轨道图
3D轨道图
轨道高度分析图
轨道倾角分析图
轨道综合分析图
查看轨道综合分析图
与全量物体交会距离演化趋势 订阅飞行安全评估服务
与全量物体交会风险概率演化趋势 订阅飞行安全评估服务